User: anonymous   Login
Location: *
(46.1333°S, 161.2167°W)
Time: 07:26:46
(UTC+00:00)
Language:

Cosmos 1844 Rocket - Orbit

View from above orbital plane
View from above orbital plane
View from above satellite
View from above satellite

Ground track
Ground track

The orbit data is extracted from the following two-line orbital elements,

1 17974U 87041B   20265.81221650  .00000166  00000-0  10588-3 0  9996
2 17974  71.0061 277.0449 0013754   2.7268 169.9458 14.17268259725655
Epoch (UTC): 21 September 2020 19:29:35
Eccentricity: 0.0013754
inclination: 71.0061°
perigee height: 824 km
apogee height: 844 km
right ascension of ascending node: 277.0449°
argument of perigee: 2.7268°
revolutions per day: 14.17268259
mean anomaly at epoch: 169.9458°
orbit number at epoch: 72565

The dashed part of the orbit path shows where the satellite is in the earth's shadow,  

DLR